PRSC-HS1

operational
NORAD ID: 66053 Int'l Des: 2025-234 Owner: SUPA Country: PK
LEOCIRCULARRETROGRADESSO

About PRSC-HS1

Description loading...

Live Position

Loading 3D Globe...

Upcoming Passes

Altitude History

Altitude vs Time

uPlot chart will show altitude changes over time

Two-Line Element Set

1 66053U 25234A 25293.11211799 .00003281 00000-0 14929-3 0 9990
2 66053 97.4644 358.7789 0014253 284.5994 75.3661 15.21345789 158
Epoch: Oct 20, 2025 • Age: 13 hours

Current Status

Altitude 507.4 km
Velocity 7.61 km/s
Sub-Earth Point 5.55°N, 90.58°W
Launch Date Oct 19, 2025
Age 1 days
Type other

Technical Details

Classification Payload
Mass 400.00 kg
Dry Mass 400.00 kg
Total Mass 400.00 kg
Length 1.00 m
Diameter 1.00 m
Span 4.00 m
Shape Box+2 pan
Manufacturer SECM
Bus Type PRSS
Phase Status In Orbit
Owner/State SUPA/PK

Large Constellations

Loading constellations...